TimeEDT,TemperatureF,Dew PointF,Humidity,Sea Level PressureIn,VisibilityMPH,Wind Direction,Wind SpeedMPH,Gust SpeedMPH,PrecipitationIn,Events,Conditions,WindDirDegrees,DateUTC
12:51 AM,42.1,39.0,89,30.00,10.0,Calm,Calm,-,N/A,,Partly Cloudy,0,2012-10-18 04:51:00
1:51 AM,41.0,37.9,89,29.99,10.0,Calm,Calm,-,N/A,,Partly Cloudy,0,2012-10-18 05:51:00
2:51 AM,39.9,37.9,93,30.00,10.0,Calm,Calm,-,N/A,Fog,Patches of Fog,0,2012-10-18 06:51:00
3:51 AM,37.9,35.1,89,29.99,10.0,Calm,Calm,-,N/A,Fog,Patches of Fog,0,2012-10-18 07:51:00
4:51 AM,37.9,37.0,97,30.00,10.0,Calm,Calm,-,N/A,Fog,Patches of Fog,0,2012-10-18 08:51:00
5:29 AM,39.2,37.4,93,30.01,0.5,Calm,Calm,-,N/A,Fog,Fog,0,2012-10-18 09:29:00
5:35 AM,37.4,37.4,100,30.01,0.1,Calm,Calm,-,N/A,Fog,Fog,0,2012-10-18 09:35:00
5:51 AM,37.9,37.9,100,30.01,0.2,Calm,Calm,-,N/A,Fog,Fog,0,2012-10-18 09:51:00
6:03 AM,37.4,37.4,100,30.01,0.5,Calm,Calm,-,N/A,Fog,Fog,0,2012-10-18 10:03:00
6:09 AM,37.4,37.4,100,30.01,1.0,Calm,Calm,-,N/A,,Mostly Cloudy,0,2012-10-18 10:09:00
6:17 AM,37.4,37.4,100,30.01,10.0,Calm,Calm,-,N/A,Fog,Patches of Fog,0,2012-10-18 10:17:00
6:51 AM,37.9,37.0,97,30.01,10.0,Calm,Calm,-,N/A,Fog,Patches of Fog,0,2012-10-18 10:51:00
7:51 AM,37.9,37.0,97,30.04,10.0,Calm,Calm,-,N/A,Fog,Patches of Fog,0,2012-10-18 11:51:00
8:51 AM,43.0,41.0,93,30.05,10.0,Calm,Calm,-,N/A,Fog,Patches of Fog,0,2012-10-18 12:51:00
9:21 AM,46.4,42.8,87,30.05,10.0,Calm,Calm,-,N/A,,Scattered Clouds,0,2012-10-18 13:21:00
9:51 AM,52.0,45.0,77,30.05,10.0,Variable,3.5,-,N/A,,Partly Cloudy,0,2012-10-18 13:51:00
10:51 AM,57.9,44.1,60,30.04,10.0,South,12.7,18.4,N/A,,Partly Cloudy,180,2012-10-18 14:51:00
11:51 AM,61.0,45.0,56,30.03,10.0,South,12.7,19.6,N/A,,Partly Cloudy,170,2012-10-18 15:51:00
12:51 PM,63.0,44.1,50,30.02,10.0,South,17.3,23.0,N/A,,Scattered Clouds,170,2012-10-18 16:51:00
1:51 PM,64.9,45.0,48,29.98,10.0,SSE,10.4,17.3,N/A,,Scattered Clouds,150,2012-10-18 17:51:00
2:51 PM,66.0,46.0,48,29.97,10.0,South,9.2,17.3,N/A,,Scattered Clouds,170,2012-10-18 18:51:00
3:51 PM,66.9,42.1,40,29.95,10.0,South,12.7,19.6,N/A,,Scattered Clouds,170,2012-10-18 19:51:00
4:51 PM,64.9,39.9,40,29.94,10.0,South,9.2,16.1,N/A,,Mostly Cloudy,170,2012-10-18 20:51:00
5:51 PM,64.0,42.1,45,29.95,10.0,SSE,9.2,-,N/A,,Mostly Cloudy,150,2012-10-18 21:51:00
6:51 PM,62.1,43.0,50,29.97,10.0,SE,9.2,-,N/A,,Mostly Cloudy,140,2012-10-18 22:51:00
7:51 PM,61.0,44.1,54,30.01,10.0,SSE,11.5,-,N/A,,Mostly Cloudy,150,2012-10-18 23:51:00
8:51 PM,59.0,46.0,62,30.02,10.0,SSE,13.8,20.7,N/A,,Mostly Cloudy,150,2012-10-19 00:51:00
9:51 PM,57.9,46.0,65,30.01,10.0,SE,4.6,17.3,N/A,,Mostly Cloudy,140,2012-10-19 01:51:00
10:19 PM,57.2,46.4,67,30.01,10.0,SSE,6.9,-,N/A,,Mostly Cloudy,150,2012-10-19 02:19:00
10:51 PM,57.9,46.9,67,30.01,10.0,ESE,3.5,-,N/A,,Mostly Cloudy,120,2012-10-19 02:51:00
11:51 PM,57.0,48.0,72,30.00,10.0,SSE,4.6,-,N/A,,Overcast,150,2012-10-19 03:51:00